Regional Weather Roundup
Issued by NWS

Home | Current Version | Previous Version | Graphics & Text | Print | Product List | Glossary On
Versions: 1 2 3 4 5 6 7 8 9 10 11 12 13 14 15 16 17 18 19 20 21 22 23 24 25 26 27 28 29 30 31 32 33 34 35 36 37 38 39 40 41 42 43 44 45 46 47 48 49 50
000
ASUS43 KLOT 280406
RWRIL

ILLINOIS REGIONAL WEATHER ROUNDUP
NATIONAL WEATHER SERVICE CHICAGO/ROMEOVILLE IL
1000 PM CST FRI FEB 27 2015

NOTE: "FAIR" INDICATES FEW OR NO CLOUDS BELOW 12,000 FEET WITH NO
SIGNIFICANT WEATHER AND/OR OBSTRUCTIONS TO VISIBILITY.

* THESE STATIONS ARE NOT UNDER NWS QUALITY CONTROL. THEY ALSO MAY NOT
  REPORT WEATHER SUCH AS PRECIPITATION OR FOG.

ILZ001-002-007-009-015-016-024-280500-
NORTHWEST ILLINOIS

CITY           SKY/WX    TMP DP  RH WIND       PRES   REMARKS
MOLINE         MOCLDY   -10 -16  74 CALM      30.68R
STERLING*      MOCLDY   -13 -24  58 CALM      30.67R
SAVANNA*       MOCLDY    -9 -14  76 CALM      30.68R
$$

ILZ003-004-008-010-011-017-018-280500-
NORTH CENTRAL ILLINOIS

CITY           SKY/WX    TMP DP  RH WIND       PRES   REMARKS
ROCKFORD       PTCLDY    -1  -9  68 CALM      30.66R
FREEPORT*      MOCLDY    -1  -8  71 CALM      30.66R
ROCHELLE*      FAIR     -13 -17  82 CALM      30.67R
DE KALB*       MOCLDY    -3 -10  72 SW6       30.65R WCI -15
PERU*          MOCLDY     2  -5  72 CALM      30.68R
$$

ILZ005-006-012>014-019>023-280500-
NORTHEAST ILLINOIS

CITY           SKY/WX    TMP DP  RH WIND       PRES   REMARKS
CHICAGO-OHARE  CLEAR      4  -6  63 SW3       30.66R
CHICAGO-MIDWAY CLEAR      7  -4  60 S6        30.68R WCI  -3
AURORA         MOCLDY    -8 -14  74 CALM      30.67R
LANSING*       PTCLDY    -2  -7  80 CALM      30.68S
JOLIET*        MOCLDY    -7 -11  81 CALM      30.69R
WAUKEGAN       CLEAR      3  -4  72 SW5       30.64R WCI  -6
DUPAGE AIRPORT PTCLDY    -1  -9  68 S3        30.65R
KANKAKEE*      CLOUDY    -5  -8  85 CALM      30.69R
WHEELING       CLEAR      6  -6  57 SW3       30.68R
MORRIS*        MOCLDY    -2  -6  80 SW3       30.68R
ROMEOVILLE*    MOCLDY     3  -4  72 CALM      30.68R
NORTHERLY ISL    N/A     10  -2  58 W3          N/A
$$

LMZ740>746-280500-
SOUTHERN LAKE MICHIGAN

STATION/POSITION SKY/WX   TEMP    WIND        PRES    VSBY  WAVE
                          AIR SEA DIR/SP/G                  HT/PER
                          (F)     (DEG/KT/KT) (MB)    (MI)  (FT/S)
WAUKEGAN HARBOR             7     250/  5/  9   N/A
HARRISON CRIB              10     250/  9/ 12   N/A
BURNHAM HARBOR             10     230/  2/  7   N/A
CALUMET HARBOR              8     210/  3/  6 1037.5R
MICHIGAN CITY               7     190/  6/  7   N/A
$$

ILZ025>027-034>036-040-047-049-050-058-095>099-280500-
WEST-CENTRAL ILLINOIS

CITY           SKY/WX    TMP DP  RH WIND       PRES   REMARKS
QUINCY         FAIR       6  -4  63 E6        30.64S WCI  -4
GALESBURG*     MOCLDY    -3  -6  88 CALM      30.66S
MACOMB*        MOCLDY    -4 -10  77 CALM      30.69S
JACKSONVILLE*  MOCLDY     6  -2  70 SE3       30.67S
PITTSFIELD*    PTCLDY     8  -1  69 CALM      30.66S
$$

ILZ028>032-037-038-041>044-048-051>054-059>061-280500-
CENTRAL ILLINOIS

CITY           SKY/WX    TMP DP  RH WIND       PRES   REMARKS
PONTIAC        MOCLDY    -4  -8  82 CALM      30.69R
BLOOMINGTON    PTCLDY     3  -3  76 CALM      30.67R
DECATUR        MOCLDY    -1  -7  75 CALM      30.68R
PEORIA         PTCLDY     4  -4  69 CALM      30.68R
LACON*         MOCLDY    -4 -11  71 CALM      30.69R
LINCOLN*       PTCLDY     8   2  78 CALM      30.72S
SPRINGFIELD    PTCLDY     5  -4  66 CALM      30.68S
TAYLORVILLE    MOCLDY     5   1  85 CALM      30.68S
$$

ILZ033-039-045-046-055>057-062-063-280500-
EAST-CENTRAL ILLINOIS

CITY           SKY/WX    TMP DP  RH WIND       PRES   REMARKS
CHAMPAIGN      PTCLDY     4  -4  69 NE3       30.67R
DANVILLE*      CLEAR      3  -2  78 CALM      30.65R
RANTOUL*       PTCLDY     4  -1  77 CALM      30.67R
MATTOON        MOCLDY     7  -1  70 N5        30.66R WCI  -2
PARIS*         MOCLDY     1  -3  83 CALM      30.69S
$$

ILZ079-100>102-280500-
SOUTHWEST ILLINOIS

CITY           SKY/WX    TMP DP  RH WIND       PRES   REMARKS
ALTON          PTCLDY    11  -2  54 NE3       30.67S
BELLEVILLE     CLOUDY    14   3  61 NE6       30.65S WCI   5
CAHOKIA*       CLOUDY    16   3  56 NE8       30.67S WCI   5
SPARTA*        CLOUDY    17   7  64 NE7       30.65F WCI   8
$$

ILZ064>066-069>071-074>076-080>082-084>086-088>090-092>094-280500-
SOUTH-CENTRAL ILLINOIS

CITY           SKY/WX    TMP DP  RH WIND       PRES   REMARKS
CARBONDALE     MOCLDY    19   9  65 E5        30.64F WCI  12
CAIRO*         CLOUDY    24  13  62 NE10      30.63F WCI  14
EFFINGHAM*     PTCLDY     5  -2  73 CALM      30.69F
MARION         CLEAR     19  10  68 NE5       30.65S WCI  13
MT. VERNON     PTCLDY    16   3  57 NE5       30.66S WCI   9
CENTRALIA*     CLOUDY    14   3  62 NE5       30.66S WCI   6
SALEM*         MOCLDY    13   3  63 CALM      30.67S
METROPOLIS*    MOCLDY    22  13  68 NE5       30.63S WCI  15
$$

ILZ067-068-072-073-078-083-087-091-280500-
SOUTHEAST ILLINOIS

CITY           SKY/WX    TMP DP  RH WIND       PRES   REMARKS
LAWRENCEVILLE  CLEAR      9   0  67 NE8       30.69S WCI  -3
FLORA*         CLEAR     10   1  68 N6        30.68F WCI   0
FAIRFIELD*     MOCLDY    16   6  64 N6        30.66F WCI   7
HARRISBURG*    PTCLDY    19   9  66 NE6       30.67S WCI  11
ROBINSON*      PTCLDY     6  -2  70 N3        30.71R
CARMI*         CLEAR     20  11  70 N7        30.66S WCI  11
$$

ABBREVIATIONS USED IN REMARKS
   TC - TEMPERATURE IN CELSIUS
  WCI - WIND CHILL INDEX
   HX - HEAT INDEX
  VSB - VISIBILITY
$$



USA.gov is the U.S. government's official web portal to all federal, state and local government web resources and services.